When you browse on this site, cookies collect data to enhance your experience and personalize the content and advertising you see.
Visit our Privacy Policy to learn more. By continuing to use the site, you agree to this use of cookies and data.
  • în România
  • Lista ţărilor
  • Pe 7 zile
  • Temperatura apei
  • Meteo pe hartă
  • Widget-uri
  • user-avatar
    Intrare

    Meteo pe oră la Brecon

    Astăzi, 18 Februarie, Marţi

    Timp Temperatura Precipitaţii Vânt Presiune Umiditate
    00:00 0°C° 0 mm 7 m/s 747 mmHg 79%
    01:00 0°C° 0.1 mm 7 m/s 747 mmHg 80%
    02:00 0°C° 0.1 mm 7 m/s 747 mmHg 81%
    03:00 0°C° 0.1 mm 7 m/s 748 mmHg 83%
    04:00 0°C° 0 mm 7 m/s 748 mmHg 83%
    05:00 0°C° 0 mm 7 m/s 748 mmHg 83%
    06:00 +2°C° 0 mm 7 m/s 748 mmHg 83%
    07:00 +1°C° 0.1 mm 8 m/s 748 mmHg 84%
    08:00 +2°C° 0.1 mm 8 m/s 748 mmHg 84%
    09:00 +2°C° 0.1 mm 9 m/s 748 mmHg 85%
    10:00 +3°C° 0.2 mm 9 m/s 748 mmHg 86%
    11:00 +3°C° 0.2 mm 10 m/s 747 mmHg 87%
    12:00 +3°C° 0.2 mm 10 m/s 747 mmHg 88%
    13:00 +3°C° 0.1 mm 10 m/s 747 mmHg 85%
    14:00 +5°C° 0.1 mm 10 m/s 746 mmHg 82%
    15:00 +5°C° 0.1 mm 10 m/s 746 mmHg 80%
    16:00 +3°C° 0.7 mm 10 m/s 745 mmHg 81%
    17:00 +3°C° 0.7 mm 10 m/s 745 mmHg 83%
    18:00 +2°C° 0.7 mm 9 m/s 745 mmHg 85%
    19:00 +1°C° 0.1 mm 9 m/s 745 mmHg 84%
    20:00 +1°C° 0.1 mm 8 m/s 746 mmHg 84%
    21:00 0°C° 0.1 mm 8 m/s 746 mmHg 83%
    22:00 0°C° 0 mm 8 m/s 747 mmHg 83%
    23:00 -1°C° 0 mm 8 m/s 747 mmHg 83%

    Mâine, 19 Februarie, Miercuri

    Timp Temperatura Precipitaţii Vânt Presiune Umiditate
    00:00 -1°C° 0 mm 7 m/s 748 mmHg 82%
    01:00 -1°C° 0 mm 7 m/s 748 mmHg 83%
    02:00 -1°C° 0 mm 6 m/s 748 mmHg 83%
    03:00 -2°C° 0 mm 6 m/s 748 mmHg 83%
    04:00 0°C° 0 mm 5 m/s 748 mmHg 83%
    05:00 0°C° 0 mm 5 m/s 748 mmHg 83%
    06:00 0°C° 0 mm 5 m/s 748 mmHg 83%
    07:00 0°C° 0 mm 5 m/s 748 mmHg 85%
    08:00 +1°C° 0 mm 5 m/s 748 mmHg 86%
    09:00 +2°C° 0 mm 5 m/s 748 mmHg 87%
    10:00 +2°C° 0.2 mm 5 m/s 748 mmHg 90%
    11:00 +3°C° 0.2 mm 6 m/s 747 mmHg 92%
    12:00 +4°C° 0.2 mm 6 m/s 747 mmHg 94%
    13:00 +4°C° 0.6 mm 7 m/s 746 mmHg 94%
    14:00 +4°C° 0.6 mm 8 m/s 745 mmHg 94%
    15:00 +5°C° 0.6 mm 9 m/s 745 mmHg 94%
    16:00 +5°C° 0.3 mm 9 m/s 744 mmHg 93%
    17:00 +5°C° 0.3 mm 9 m/s 743 mmHg 92%
    18:00 +5°C° 0.3 mm 9 m/s 743 mmHg 91%
    19:00 +5°C° 0.1 mm 9 m/s 742 mmHg 91%
    20:00 +5°C° 0.1 mm 9 m/s 742 mmHg 90%
    21:00 +5°C° 0.1 mm 9 m/s 742 mmHg 90%
    22:00 +5°C° 0 mm 9 m/s 741 mmHg 89%
    23:00 +5°C° 0 mm 8 m/s 741 mmHg 89%

    Poimâine, 20 Februarie, Joi

    Timp Temperatura Precipitaţii Vânt Presiune Umiditate
    00:00 +5°C° 0 mm 8 m/s 740 mmHg 88%
    01:00 +5°C° 0.1 mm 9 m/s 740 mmHg 88%
    02:00 +6°C° 0.1 mm 9 m/s 739 mmHg 88%
    03:00 +6°C° 0.1 mm 9 m/s 738 mmHg 88%
    04:00 +6°C° 0.1 mm 9 m/s 738 mmHg 88%
    05:00 +5°C° 0.1 mm 9 m/s 737 mmHg 88%
    06:00 +5°C° 0.1 mm 9 m/s 736 mmHg 88%
    07:00 +6°C° 0.7 mm 10 m/s 736 mmHg 89%
    08:00 +6°C° 0.7 mm 11 m/s 735 mmHg 91%
    09:00 +6°C° 0.7 mm 11 m/s 735 mmHg 93%
    10:00 +5°C° 0.2 mm 12 m/s 735 mmHg 88%
    11:00 +5°C° 0.2 mm 12 m/s 736 mmHg 84%
    12:00 +4°C° 0.2 mm 13 m/s 737 mmHg 80%
    13:00 +4°C° 0.1 mm 12 m/s 738 mmHg 78%
    14:00 +3°C° 0.1 mm 11 m/s 739 mmHg 75%
    15:00 +2°C° 0.1 mm 10 m/s 741 mmHg 73%
    16:00 +1°C° 0.1 mm 9 m/s 742 mmHg 74%
    17:00 0°C° 0.1 mm 9 m/s 743 mmHg 75%
    18:00 -1°C° 0.1 mm 8 m/s 745 mmHg 76%
    19:00 -1°C° 0 mm 8 m/s 746 mmHg 76%
    20:00 -1°C° 0 mm 7 m/s 747 mmHg 75%
    21:00 -1°C° 0 mm 7 m/s 748 mmHg 75%
    22:00 -1°C° 0 mm 7 m/s 749 mmHg 76%
    23:00 -1°C° 0 mm 7 m/s 749 mmHg 77%

    21 Februarie, Vineri

    Timp Temperatura Precipitaţii Vânt Presiune Umiditate
    00:00 -1°C° 0 mm 7 m/s 750 mmHg 79%
    01:00 -1°C° 0 mm 6 m/s 751 mmHg 79%
    02:00 -1°C° 0 mm 6 m/s 751 mmHg 80%
    03:00 -1°C° 0 mm 6 m/s 751 mmHg 81%
    04:00 -1°C° 0 mm 6 m/s 752 mmHg 81%
    05:00 +1°C° 0 mm 6 m/s 752 mmHg 82%
    06:00 +1°C° 0 mm 6 m/s 752 mmHg 83%
    13:00 +5°C° 0 mm 10 m/s 752 mmHg 78%
    14:00 +4°C° 0 mm 11 m/s 752 mmHg 80%
    15:00 +4°C° 0 mm 11 m/s 751 mmHg 81%
    16:00 +4°C° 0 mm 11 m/s 751 mmHg 82%
    17:00 +4°C° 0 mm 11 m/s 751 mmHg 83%
    18:00 +4°C° 0 mm 11 m/s 750 mmHg 84%
    19:00 +4°C° 0.1 mm 11 m/s 750 mmHg 86%
    20:00 +4°C° 0.1 mm 11 m/s 750 mmHg 87%
    21:00 +4°C° 0.1 mm 12 m/s 750 mmHg 89%
    22:00 +4°C° 0.4 mm 12 m/s 750 mmHg 90%
    23:00 +5°C° 0.4 mm 12 m/s 750 mmHg 91%

    22 Februarie, Sâmbătă

    Timp Temperatura Precipitaţii Vânt Presiune Umiditate
    00:00 +5°C° 0.4 mm 12 m/s 750 mmHg 92%
    01:00 +5°C° 0.5 mm 12 m/s 749 mmHg 93%
    02:00 +5°C° 0.5 mm 12 m/s 749 mmHg 93%
    03:00 +7°C° 0.5 mm 12 m/s 748 mmHg 94%
    04:00 +7°C° 0.1 mm 12 m/s 748 mmHg 94%
    05:00 +7°C° 0.1 mm 12 m/s 748 mmHg 95%
    06:00 +7°C° 0.1 mm 12 m/s 749 mmHg 95%
    07:00 +7°C° 0.1 mm 12 m/s 749 mmHg 94%
    08:00 +8°C° 0.1 mm 12 m/s 749 mmHg 94%
    09:00 +8°C° 0.1 mm 12 m/s 749 mmHg 93%
    10:00 +8°C° 0.1 mm 11 m/s 750 mmHg 92%
    11:00 +8°C° 0.1 mm 11 m/s 750 mmHg 92%
    12:00 +8°C° 0.1 mm 11 m/s 750 mmHg 92%
    13:00 +8°C° 0 mm 10 m/s 750 mmHg 91%
    14:00 +8°C° 0 mm 10 m/s 750 mmHg 91%
    15:00 +8°C° 0 mm 10 m/s 750 mmHg 91%
    16:00 +7°C° 0.1 mm 9 m/s 750 mmHg 92%
    17:00 +7°C° 0.1 mm 9 m/s 751 mmHg 93%
    18:00 +7°C° 0.1 mm 8 m/s 751 mmHg 93%
    19:00 +7°C° 0.2 mm 8 m/s 751 mmHg 94%
    20:00 +7°C° 0.2 mm 8 m/s 751 mmHg 94%
    21:00 +7°C° 0.2 mm 8 m/s 751 mmHg 95%
    22:00 +9°C° 0.1 mm 8 m/s 751 mmHg 95%
    23:00 +9°C° 0.1 mm 8 m/s 751 mmHg 95%

    23 Februarie, Duminică

    Timp Temperatura Precipitaţii Vânt Presiune Umiditate
    00:00 +8°C° 0.1 mm 9 m/s 751 mmHg 95%
    01:00 +8°C° 0.1 mm 9 m/s 750 mmHg 95%
    02:00 +8°C° 0.1 mm 10 m/s 750 mmHg 94%
    03:00 +8°C° 0.1 mm 11 m/s 749 mmHg 94%
    04:00 +8°C° 0.1 mm 11 m/s 749 mmHg 94%
    05:00 +8°C° 0.1 mm 11 m/s 749 mmHg 94%
    06:00 +8°C° 0.1 mm 12 m/s 749 mmHg 94%
    07:00 +8°C° 0.1 mm 11 m/s 749 mmHg 94%
    08:00 +8°C° 0.1 mm 11 m/s 749 mmHg 94%
    09:00 +8°C° 0.1 mm 10 m/s 750 mmHg 93%
    10:00 +8°C° 0 mm 10 m/s 750 mmHg 93%
    11:00 +8°C° 0 mm 10 m/s 750 mmHg 94%
    12:00 +8°C° 0 mm 10 m/s 750 mmHg 94%
    13:00 +8°C° 0 mm 10 m/s 749 mmHg 93%
    14:00 +8°C° 0 mm 10 m/s 749 mmHg 92%
    15:00 +8°C° 0 mm 10 m/s 749 mmHg 92%
    16:00 +8°C° 0 mm 10 m/s 748 mmHg 92%
    17:00 +7°C° 0 mm 10 m/s 748 mmHg 92%
    18:00 +7°C° 0 mm 10 m/s 748 mmHg 93%
    19:00 +7°C° 0 mm 10 m/s 747 mmHg 92%
    20:00 +7°C° 0 mm 10 m/s 747 mmHg 91%
    21:00 +7°C° 0 mm 10 m/s 747 mmHg 90%
    22:00 +7°C° 0 mm 10 m/s 746 mmHg 90%
    23:00 +7°C° 0 mm 11 m/s 746 mmHg 91%
    Arată mai mult